Temp
-12 -13 -12 -12 -12 -13 -12 -13 -13 -13 -14 -13 -13 -13 -12 -12 -13 -12 -12 -12 -13 -13 -12 -12 -12 -12 -12 -13 -13 -13 -13 -13 -13 -14 -15 -15 -15 -15 -16 -17 -17 -17 -17
-12 -12 -13 -12 -12 -13 -13 -13 -13 -13 -13 -13 -13 -13 -13 -13 -13 -13 -13 -13 -13 -13 -12 -12 -13 -13 -13 -13 -13 -13 -13 -14 -14 -14 -14 -15 -15 -16 -16 -17 -17 -17 -17
-12 -13 -13 -13 -12 -12 -13 -13 -13 -12 -12 -13 -13 -13 -13 -13 -13 -13 -13 -13 -13 -13 -13 -13 -13 -13 -13 -13 -13 -14 -14 -14 -14 -14 -15 -15 -16 -16 -16 -17 -17 -17 -17
-13 -13 -13 -13 -12 -12 -13 -13 -13 -13 -13 -13 -13 -13 -14 -13 -13 -13 -13 -13 -13 -13 -13 -13 -13 -13 -13 -14 -14 -14 -14 -14 -14 -14 -15 -15 -15 -16 -16 -17 -16 -17 -16
-13 -13 -14 -13 -13 -13 -13 -13 -13 -13 -13 -13 -13 -13 -14 -14 -14 -14 -13 -13 -14 -13 -13 -14 -13 -13 -14 -14 -14 -14 -14 -14 -14 -14 -15 -15 -16 -16 -15 -16 -16 -16 -16
-13 -13 -14 -13 -13 -13 -13 -13 -13 -13 -13 -13 -13 -13 -13 -13 -13 -13 -13 -13 -14 -14 -13 -13 -14 -14 -14 -14 -14 -15 -14 -14 -15 -15 -15 -15 -16 -16 -16 -16 -16 -16 -16
-12 -13 -14 -14 -13 -13 -13 -13 -13 -13 -13 -13 -13 -13 -13 -13 -13 -13 -13 -13 -14 -14 -14 -14 -14 -14 -14 -14 -14 -14 -14 -15 -15 -15 -15 -15 -16 -16 -16 -16 -16 -16 -16
-12 -13 -13 -14 -14 -13 -13 -13 -13 -13 -13 -13 -13 -13 -13 -13 -13 -13 -13 -13 -13 -13 -13 -14 -14 -14 -14 -14 -15 -15 -15 -15 -15 -15 -15 -16 -16 -16 -16 -16 -16 -16 -16
-13 -12 -13 -14 -14 -14 -13 -13 -13 -13 -13 -13 -13 -13 -13 -13 -13 -13 -13 -13 -13 -13 -14 -14 -14 -14 -14 -15 -15 -15 -15 -15 -15 -15 -16 -16 -16 -15 -16 -16 -16 -16 -15
-14 -13 -13 -14 -14 -14 -13 -13 -13 -13 -13 -14 -14 -13 -13 -14 -13 -13 -14 -14 -14 -14 -14 -14 -14 -14 -14 -15 -15 -15 -15 -15 -15 -15 -15 -15 -15 -15 -16 -16 -16 -16 -16
-13 -13 -13 -13 -14 -14 -14 -14 -14 -14 -14 -14 -14 -14 -14 -14 -14 -14 -14 -14 -14 -14 -14 -14 -15 -14 -14 -15 -14 -15 -15 -14 -14 -15 -15 -15 -16 -16 -16 -16 -16 -16 -16
-14 -14 -14 -13 -14 -14 -14 -14 -14 -14 -14 -14 -14 -14 -14 -14 -14 -14 -14 -14 -15 -14 -15 -15 -14 -15 -15 -15 -15 -14 -15 -15 -15 -15 -16 -15 -16 -15 -16 -17 -16 -16 -16
-15 -15 -15 -15 -14 -14 -14 -14 -14 -15 -14 -14 -14 -14 -15 -15 -15 -15 -15 -15 -15 -15 -15 -15 -15 -15 -15 -15 -15 -15 -15 -15 -15 -15 -15 -15 -15 -15 -16 -16 -16 -16 -16
-16 -16 -16 -16 -15 -15 -14 -14 -14 -14 -15 -15 -14 -14 -15 -15 -15 -15 -15 -15 -15 -15 -15 -15 -15 -15 -15 -15 -15 -15 -15 -15 -15 -15 -15 -15 -15 -15 -16 -16 -16 -16 -16
-16 -16 -16 -16 -15 -16 -16 -15 -15 -15 -15 -15 -15 -15 -15 -15 -15 -15 -16 -15 -15 -16 -16 -16 -16 -15 -15 -15 -15 -15 -15 -15 -15 -14 -15 -15 -16 -16 -16 -17 -16 -16 -17
-15 -15 -16 -15 -15 -15 -16 -16 -16 -15 -15 -15 -15 -15 -15 -15 -15 -16 -16 -16 -15 -16 -16 -16 -16 -16 -16 -16 -16 -16 -16 -16 -15 -15 -16 -16 -16 -16 -16 -16 -17 -17 -17
-15 -15 -16 -16 -15 -15 -15 -15 -16 -16 -15 -15 -15 -15 -16 -15 -15 -16 -16 -16 -16 -16 -16 -16 -16 -16 -17 -17 -17 -16 -16 -16 -16 -16 -16 -16 -16 -17 -17 -17 -17 -17 -17
-15 -15 -15 -16 -16 -15 -15 -15 -15 -16 -16 -16 -16 -16 -16 -16 -16 -16 -16 -16 -16 -16 -16 -16 -17 -17 -17 -17 -17 -17 -16 -16 -16 -16 -16 -16 -16 -16 -17 -17 -17 -17 -17
-15 -15 -15 -15 -15 -15 -16 -15 -15 -15 -16 -16 -16 -16 -16 -16 -16 -16 -16 -16 -16 -16 -16 -16 -17 -17 -17 -17 -17 -17 -17 -17 -17 -17 -16 -17 -17 -16 -17 -17 -18 -18 -18
-16 -16 -16 -16 -16 -15 -15 -15 -15 -15 -15 -15 -16 -16 -16 -16 -16 -16 -17 -17 -16 -16 -17 -17 -17 -18 -18 -18 -17 -17 -17 -17 -17 -17 -16 -17 -17 -17 -17 -17 -17 -18 -18
-16 -15 -16 -16 -16 -16 -16 -15 -16 -16 -15 -16 -16 -17 -17 -16 -16 -17 -16 -16 -17 -17 -17 -17 -17 -18 -18 -17 -17 -17 -17 -17 -17 -17 -17 -17 -17 -17 -17 -17 -18 -18 -18
-17 -17 -16 -17 -17 -16 -17 -17 -16 -16 -15 -16 -16 -16 -16 -17 -17 -17 -17 -16 -16 -16 -17 -17 -17 -17 -17 -17 -17 -17 -17 -17 -17 -18 -18 -18 -18 -17 -17 -18 -19 -19 -19
-18 -18 -17 -17 -17 -17 -17 -17 -17 -16 -16 -17 -17 -17 -17 -17 -17 -17 -17 -17 -16 -17 -17 -17 -17 -17 -17 -15 -16 -17 -17 -17 -17 -18 -18 -18 -18 -18 -18 -18 -17 -18 -19
-19 -19 -18 -18 -17 -17 -17 -17 -17 -17 -17 -17 -17 -17 -17 -17 -17 -17 -17 -17 -17 -17 -17 -17 -16 -16 -17 -17 -17 -17 -17 -17 -17 -17 -18 -18 -18 -18 -18 -18 -18 -18 -19
-19 -19 -19 -19 -19 -18 -18 -18 -18 -18 -18 -17 -17 -16 -17 -17 -16 -17 -16 -17 -17 -17 -17 -16 -17 -17 -17 -17 -16 -17 -17 -17 -17 -17 -18 -18 -18 -18 -18 -18 -18 -19 -19
-19 -19 -19 -19 -19 -19 -18 -18 -18 -17 -17 -17 -17 -17 -16 -16 -16 -16 -17 -17 -17 -16 -17 -16 -17 -17 -17 -17 -16 -17 -17 -17 -17 -18 -18 -18 -18 -18 -19 -19 -20 -20 -21
Height
5724 5724 5723 5722 5720 5718 5717 5715 5712 5709 5707 5707 5708 5707 5709 5711 5716 5719 5723 5729 5733 5737 5738 5740 5745 5749 5753 5757 5759 5762 5765 5767 5769 5768 5769 5769 5769 5770 5771 5773 5776 5781 5782
5721 5721 5721 5720 5718 5716 5715 5714 5712 5710 5707 5706 5708 5709 5710 5711 5713 5717 5721 5724 5729 5732 5735 5737 5742 5748 5751 5753 5755 5757 5761 5762 5762 5763 5763 5763 5763 5764 5767 5769 5771 5775 5778
5718 5718 5719 5718 5717 5715 5715 5713 5712 5709 5708 5706 5706 5709 5710 5711 5713 5714 5718 5722 5727 5730 5734 5737 5742 5745 5748 5750 5751 5753 5755 5755 5755 5756 5758 5758 5759 5759 5761 5764 5766 5768 5769
5715 5715 5717 5716 5716 5714 5714 5713 5712 5710 5709 5709 5708 5709 5709 5712 5714 5715 5717 5721 5725 5728 5731 5735 5738 5740 5742 5744 5745 5747 5749 5749 5750 5751 5751 5753 5756 5756 5758 5759 5761 5762 5763
5713 5713 5714 5714 5714 5714 5713 5713 5712 5711 5711 5710 5710 5710 5710 5712 5713 5715 5717 5719 5722 5725 5727 5730 5733 5735 5736 5738 5740 5741 5744 5745 5746 5746 5747 5750 5751 5752 5754 5756 5756 5756 5757
5711 5710 5711 5711 5712 5712 5712 5712 5712 5711 5710 5711 5712 5712 5711 5712 5714 5715 5715 5717 5720 5721 5723 5726 5728 5729 5730 5733 5736 5738 5740 5741 5743 5745 5746 5747 5747 5748 5748 5750 5751 5749 5750
5708 5707 5708 5708 5710 5710 5710 5710 5710 5711 5711 5710 5710 5711 5712 5713 5713 5714 5714 5717 5719 5721 5723 5725 5725 5727 5729 5731 5733 5736 5736 5738 5740 5741 5742 5743 5742 5743 5744 5745 5745 5743 5742
5704 5704 5704 5705 5706 5708 5708 5708 5708 5709 5709 5710 5710 5710 5711 5711 5712 5713 5714 5715 5717 5719 5720 5722 5723 5725 5727 5728 5730 5732 5732 5733 5736 5737 5737 5738 5737 5737 5738 5738 5735 5735 5733
5699 5701 5702 5702 5703 5704 5705 5706 5707 5707 5708 5708 5708 5709 5710 5710 5711 5712 5713 5714 5716 5717 5718 5719 5720 5721 5723 5724 5725 5727 5727 5728 5729 5729 5729 5729 5729 5729 5729 5728 5726 5724 5723
5693 5695 5697 5698 5699 5700 5702 5704 5704 5704 5705 5705 5705 5706 5707 5707 5708 5709 5710 5712 5713 5714 5715 5716 5716 5717 5718 5719 5720 5720 5721 5721 5722 5721 5721 5721 5721 5721 5720 5719 5717 5715 5713
5689 5690 5692 5694 5695 5696 5697 5699 5700 5701 5701 5702 5702 5703 5703 5704 5704 5704 5705 5707 5708 5709 5710 5711 5712 5713 5713 5713 5712 5712 5712 5711 5712 5711 5711 5711 5711 5711 5709 5708 5706 5704 5700
5684 5684 5686 5688 5690 5691 5691 5692 5694 5695 5695 5696 5698 5699 5700 5701 5702 5701 5701 5701 5702 5703 5704 5704 5705 5706 5706 5705 5706 5705 5705 5704 5703 5702 5701 5700 5700 5698 5698 5697 5693 5690 5688
5677 5679 5679 5681 5684 5686 5687 5687 5688 5689 5689 5691 5693 5694 5695 5696 5697 5696 5696 5696 5696 5697 5698 5699 5699 5698 5698 5698 5697 5697 5698 5697 5696 5694 5693 5690 5688 5687 5687 5686 5683 5681 5679
5672 5672 5673 5674 5677 5679 5680 5681 5683 5683 5683 5684 5686 5688 5689 5690 5690 5689 5690 5691 5690 5691 5690 5690 5690 5690 5689 5689 5690 5689 5688 5687 5686 5685 5683 5681 5678 5678 5676 5674 5672 5670 5667
5665 5666 5666 5665 5667 5669 5672 5674 5676 5677 5677 5677 5678 5681 5681 5681 5682 5683 5683 5682 5682 5682 5682 5683 5683 5683 5681 5681 5680 5678 5677 5676 5675 5674 5672 5669 5668 5667 5664 5662 5660 5658 5655
5657 5658 5660 5660 5662 5662 5663 5664 5666 5668 5668 5669 5671 5672 5672 5673 5674 5675 5674 5674 5674 5673 5673 5674 5673 5672 5671 5671 5670 5666 5665 5664 5663 5661 5660 5658 5657 5655 5653 5651 5648 5646 5644
5648 5650 5651 5652 5653 5653 5653 5654 5657 5657 5657 5659 5662 5662 5663 5663 5665 5665 5665 5666 5665 5664 5664 5664 5663 5662 5660 5660 5659 5657 5654 5652 5651 5650 5648 5646 5645 5643 5642 5639 5636 5634 5630
5636 5639 5641 5642 5644 5644 5646 5647 5647 5647 5648 5649 5650 5652 5652 5652 5654 5654 5655 5655 5655 5655 5654 5653 5652 5651 5650 5649 5648 5646 5642 5640 5640 5639 5636 5634 5632 5630 5628 5626 5623 5620 5617
5620 5624 5628 5632 5633 5634 5635 5636 5636 5637 5637 5638 5639 5641 5641 5641 5642 5643 5644 5644 5643 5644 5643 5642 5642 5640 5639 5637 5636 5634 5632 5630 5628 5626 5624 5622 5619 5617 5615 5612 5609 5605 5603
5607 5610 5612 5614 5617 5620 5621 5623 5624 5625 5626 5627 5629 5629 5629 5629 5630 5632 5631 5631 5631 5633 5633 5630 5630 5629 5628 5627 5624 5622 5619 5617 5615 5613 5610 5608 5605 5603 5600 5597 5594 5590 5587
5595 5596 5598 5599 5600 5602 5604 5607 5610 5612 5613 5612 5614 5615 5617 5617 5618 5618 5618 5621 5620 5620 5619 5618 5618 5616 5615 5613 5611 5608 5606 5604 5601 5598 5595 5593 5590 5587 5583 5579 5576 5572 5568
5584 5585 5584 5585 5586 5587 5589 5591 5592 5594 5596 5600 5600 5601 5603 5603 5605 5606 5607 5607 5606 5605 5604 5603 5601 5600 5599 5600 5597 5595 5592 5589 5586 5583 5580 5578 5575 5571 5567 5563 5558 5554 5551
5573 5571 5571 5570 5570 5571 5572 5574 5576 5578 5581 5583 5583 5586 5587 5589 5590 5591 5592 5593 5592 5591 5590 5588 5585 5585 5585 5584 5581 5578 5577 5573 5569 5567 5564 5561 5557 5552 5547 5545 5541 5537 5532
5563 5561 5558 5556 5554 5555 5555 5557 5560 5562 5564 5567 5568 5570 5571 5574 5575 5575 5576 5576 5577 5576 5574 5573 5573 5570 5570 5568 5566 5562 5560 5555 5553 5550 5547 5543 5539 5534 5531 5527 5524 5517 5512
5552 5549 5545 5543 5540 5539 5539 5540 5543 5546 5548 5550 5552 5554 5555 5556 5558 5558 5558 5558 5559 5559 5559 5558 5556 5554 5552 5550 5547 5545 5541 5538 5534 5532 5528 5525 5522 5519 5514 5508 5502 5497 5491
5541 5537 5534 5530 5528 5525 5524 5524 5526 5530 5533 5536 5538 5539 5540 5539 5541 5544 5545 5544 5543 5543 5543 5541 5538 5536 5535 5532 5527 5526 5522 5518 5515 5512 5509 5505 5502 5497 5492 5486 5481 5476 5471
Wind_Speed
19 15 17 16 16 13 12 8 10 8 19 15 9 4 25 27 25 26 27 30 32 34 31 32 42 43 38 32 28 26 26 26 28 27 29 29 32 34 36 35 29 28 29
16 14 14 14 15 13 11 8 7 10 9 10 6 8 7 16 22 26 29 24 20 15 18 20 31 36 32 27 27 27 26 26 27 28 30 31 33 32 35 33 33 32 33
11 11 13 12 13 13 10 8 7 7 9 7 10 9 8 5 5 17 17 22 21 16 15 14 18 22 24 25 24 25 26 28 27 27 26 26 27 31 31 31 30 30 33
11 11 12 13 10 12 8 5 5 5 5 4 1 8 16 8 10 7 12 11 15 17 17 20 19 22 21 22 21 24 25 25 23 22 19 20 24 21 24 28 28 30 31
13 12 10 12 11 8 9 5 5 5 4 4 3 3 4 6 9 10 15 15 18 21 17 19 24 24 22 20 21 17 18 18 19 15 17 17 20 22 25 24 24 31 35
13 14 13 13 11 8 7 7 5 5 5 4 3 2 3 3 5 5 5 15 18 18 18 18 20 20 16 17 15 15 16 15 14 15 20 21 22 24 25 29 34 38 37
13 15 15 17 13 12 9 7 6 4 2 2 3 4 6 6 5 5 5 7 9 10 11 11 11 13 15 17 19 17 18 19 20 24 24 27 29 32 31 35 36 39 40
13 15 16 18 15 14 13 10 6 6 5 3 4 5 6 6 7 8 9 10 11 12 12 11 12 14 16 17 20 22 22 25 30 29 30 32 33 33 35 38 41 41 45
15 15 17 19 17 14 15 13 8 7 8 8 10 8 9 11 11 10 11 12 14 15 15 16 16 17 18 20 22 24 25 28 32 32 35 37 38 36 37 39 42 44 46
21 17 20 21 21 18 16 16 14 12 13 13 13 11 12 10 9 10 13 15 18 19 18 19 19 21 20 23 26 26 30 32 33 35 37 40 42 42 44 45 47 50 54
24 22 21 23 25 24 21 20 18 19 19 18 17 16 16 16 15 14 14 15 16 18 18 19 20 23 24 25 25 26 29 33 36 40 42 43 44 47 48 48 51 54 54
24 24 23 25 25 25 23 24 25 22 22 22 20 20 19 19 17 17 17 18 19 20 21 23 24 24 25 26 29 29 29 31 34 34 40 42 46 48 50 50 48 47 51
27 23 25 26 29 30 28 29 29 29 27 26 25 23 22 21 21 22 24 25 25 25 27 27 26 25 26 27 28 29 30 32 37 37 37 39 43 49 46 47 44 47 51
29 27 27 28 30 33 33 33 32 33 32 30 28 28 27 25 26 29 29 28 29 29 29 28 27 27 30 31 31 32 33 36 37 36 39 41 39 41 41 43 46 49 50
31 36 33 32 33 33 35 37 37 37 40 38 35 32 33 33 32 32 32 33 33 29 28 30 32 33 36 38 38 39 40 38 38 38 40 41 41 46 47 45 47 50 48
34 35 37 37 37 37 34 35 37 36 39 41 38 36 37 38 36 36 35 35 37 35 35 37 39 39 36 36 36 40 41 41 41 42 42 43 44 48 43 45 45 50 54
33 34 37 39 41 41 42 41 39 42 43 44 43 41 42 42 41 40 41 40 40 40 40 40 40 40 40 37 38 41 45 46 45 43 43 43 45 45 49 48 51 55 56
35 33 33 36 39 39 40 42 42 44 44 45 46 47 47 48 46 45 43 42 44 44 44 43 43 44 43 45 44 44 45 46 45 44 45 45 48 49 51 51 55 58 59
41 38 36 36 39 40 40 43 46 43 45 46 48 47 50 50 51 48 46 46 47 44 46 45 45 44 47 48 46 48 49 48 48 48 49 51 53 54 56 57 58 63 60
42 42 42 41 38 40 42 45 46 46 47 47 50 53 55 54 54 48 48 52 49 46 46 47 44 46 50 49 50 49 50 52 53 54 54 55 57 59 61 62 63 63 63
46 50 46 48 46 39 38 40 44 46 48 50 53 55 57 59 55 53 54 52 49 50 51 51 51 51 54 53 53 52 54 56 57 59 60 61 62 61 62 64 66 65 62
42 43 47 45 45 45 41 42 47 48 50 52 52 52 56 55 54 57 57 52 56 63 58 58 59 61 60 58 52 54 57 57 59 63 63 63 63 66 68 71 68 67 69
40 42 46 49 49 48 47 44 49 52 54 56 55 55 54 56 58 58 57 60 61 60 65 63 67 64 58 71 65 55 61 60 57 61 61 62 64 69 69 67 68 68 78
39 40 44 47 51 51 50 51 51 55 57 59 58 59 60 58 63 61 61 61 62 65 68 66 68 74 61 60 59 57 65 66 62 62 63 63 61 67 63 68 76 76 76
39 42 45 43 46 50 51 48 49 53 59 58 59 65 64 64 64 68 66 67 66 67 69 72 75 72 67 66 65 68 69 76 73 64 63 62 66 69 74 75 78 78 78
44 44 44 49 49 42 44 45 44 46 49 59 54 58 69 71 61 65 64 64 68 70 73 75 75 70 63 74 71 73 73 70 69 71 71 71 73 76 76 74 74 75 76
Wind_Direction
276 277 291 300 311 321 326 343 354 298 299 283 303 228 207 204 214 220 221 228 242 253 240 235 231 218 224 227 234 246 253 264 264 272 269 264 263 260 256 248 234 242 245
275 277 287 292 304 314 321 325 341 343 326 276 296 225 191 208 214 218 228 217 207 222 221 224 220 227 231 235 244 255 264 268 276 273 270 268 262 259 255 244 238 245 249
275 285 283 284 299 307 319 318 329 347 351 269 237 283 202 222 233 221 200 206 212 223 227 217 219 232 236 245 255 267 273 273 274 276 271 271 264 260 255 251 241 249 253
271 274 279 282 290 302 310 324 327 355 4 15 290 272 275 263 233 233 206 222 228 229 232 233 246 255 256 255 265 272 271 272 270 265 268 263 262 258 260 252 254 255 251
268 265 267 284 275 290 299 310 325 337 359 359 38 8 340 336 305 267 242 236 227 236 253 254 263 262 257 258 260 261 265 263 263 261 263 265 270 269 261 257 264 262 263
258 251 258 275 269 275 284 299 309 318 334 329 310 333 278 264 290 283 245 237 234 249 254 249 252 257 251 242 248 244 263 265 269 266 263 263 269 271 268 266 264 267 267
262 242 249 263 266 264 264 278 294 292 282 315 328 303 281 272 260 243 260 259 250 250 254 258 255 246 235 237 246 245 255 262 257 259 263 262 266 268 273 272 268 272 275
262 235 235 252 260 263 256 252 263 284 273 259 292 293 284 276 266 269 255 246 249 247 245 248 250 253 255 256 261 265 266 267 262 264 266 267 268 270 271 272 271 271 273
259 243 232 243 253 258 254 253 252 267 266 283 289 284 283 266 256 261 264 258 248 246 245 248 251 255 260 264 265 266 266 265 267 268 266 265 266 265 265 266 269 273 273
260 243 233 231 239 255 258 252 246 260 276 268 268 275 273 264 268 271 262 261 263 260 256 254 255 258 262 270 264 265 268 266 269 271 273 271 267 265 265 269 274 279 283
262 257 246 233 228 244 256 254 256 268 264 257 265 270 262 262 274 277 276 264 263 257 258 256 271 277 275 277 273 280 271 267 269 271 271 268 270 268 271 275 278 282 284
257 258 252 239 238 237 244 252 256 261 261 255 264 271 263 262 262 261 266 270 270 268 269 270 276 273 274 278 280 284 281 281 281 280 274 273 266 268 272 280 279 283 282
251 255 253 246 240 245 246 248 251 256 256 255 264 268 267 263 261 267 270 270 268 266 270 273 271 268 273 276 282 282 281 282 282 282 281 278 270 267 270 274 278 279 280
256 247 248 247 246 248 252 250 250 251 255 255 262 264 263 261 264 267 276 279 277 271 271 269 269 269 271 274 279 281 281 279 280 284 280 279 280 274 270 277 278 279 279
246 245 249 248 247 248 253 256 259 255 258 258 264 264 263 262 261 266 275 275 278 271 264 269 273 276 277 280 280 278 277 276 278 278 281 281 278 276 276 276 279 282 282
246 244 246 253 257 256 252 255 258 258 257 256 263 263 259 266 266 274 272 270 274 273 269 272 278 282 282 277 273 274 273 273 274 277 279 278 279 283 278 277 279 276 281
256 249 246 248 251 255 254 252 251 257 261 263 265 265 263 265 268 274 277 268 272 270 271 273 277 285 283 279 281 281 279 275 274 276 276 276 277 277 278 279 280 280 280
260 253 252 250 247 251 257 260 259 256 257 260 264 264 265 266 270 271 275 271 269 272 272 275 278 282 282 283 280 277 276 277 279 277 275 274 274 274 275 276 278 280 281
276 274 268 259 253 251 251 255 258 258 255 256 258 260 261 263 268 269 271 271 272 270 273 273 275 277 277 278 277 277 275 274 274 275 276 276 277 276 276 277 279 281 281
280 280 279 275 268 262 258 256 256 256 257 256 256 259 261 262 264 265 262 267 269 270 275 273 275 275 277 276 275 274 277 279 279 280 279 279 279 281 281 281 281 281 282
277 277 278 277 275 269 261 261 256 250 251 251 251 253 257 262 259 260 264 269 268 267 266 268 270 272 270 270 271 272 275 277 279 280 281 281 281 281 281 281 280 279 280
274 273 273 271 271 266 255 253 250 250 247 245 249 253 254 257 256 259 260 258 260 265 266 271 270 269 273 274 272 271 276 274 276 276 278 281 281 280 278 277 280 277 273
281 280 274 272 268 264 260 250 246 248 245 239 242 247 250 249 251 254 253 256 261 263 266 269 272 275 275 274 284 272 275 278 283 279 279 279 280 279 276 269 269 271 280
279 278 277 270 267 264 260 255 246 246 247 243 241 241 244 245 249 250 252 255 257 261 262 264 266 271 273 275 276 277 285 281 286 281 279 280 285 273 258 267 275 282 284
285 283 280 276 275 264 260 261 249 250 251 250 248 245 245 245 248 247 248 250 255 259 259 262 266 272 277 275 278 281 281 279 279 282 279 278 279 277 277 281 282 284 284
284 284 289 279 290 272 261 253 243 246 256 253 253 252 249 245 249 259 259 257 260 260 263 264 270 269 268 272 269 275 279 278 281 279 278 274 275 278 280 282 282 282 282